Tracking 29892 objects as of 21-Nov-2024
HD Live streaming from Space Station
objects crossing your sky now

NOAA 16 DEB

Track NOAA 16 DEB now!
10-day predictions


NORAD ID: 41372
Int'l Code: 2000-055JR
Perigee: 686.3 km
Apogee: 772.0 km
Inclination: 99.0 °
Period: 99.2 minutes
Semi major axis: 7100 km
RCS: Unknown
Launch date: September 21, 2000
Source: United States (US)
Launch site: AIR FORCE WESTERN TEST RANGE (AFWTR)

Note: This is SATELLITE DEBRIS
Your satellite tracking list
Your tracking list is empty




NASA's NSSDC Master Catalog

Two Line Element Set (TLE):
1 41372U 00055JR  24325.11662929  .00023459  00000-0  57731-2 0  9997
2 41372  98.9928 206.7546 0060295 276.7647  82.6688 14.51117439462270
Source of the keplerian elements: AFSPC